FW6268 Weather Reports


time (UTC)temp
F
wind
direction
speed
knots
gust
knots
rain 1hr
in
rain 24hr
in
rain mn
in
humidity
%
barometer
mb
20260503204516 67 218 4.3 11.3 0.00 0.00 0.00 43 1005.0
20260503203533 65 251 7.8 13.0 0.00 0.00 0.00 43 1005.3
20260503202530 66 263 5.2 13.0 0.00 0.00 0.00 43 1005.4
20260503201526 66 239 6.1 13.0 0.00 0.00 0.00 43 1005.6
20260503200523 66 255 7.0 20.0 0.00 0.00 0.00 42 1005.8
20260503195520 65 243 7.0 13.0 0.00 0.00 0.00 41 1005.9
20260503194517 66 247 7.0 18.2 0.00 0.00 0.00 40 1006.1
20260503193533 66 233 7.0 14.8 0.00 0.00 0.00 39 1006.1
20260503192610 66 261 9.6 21.7 0.00 0.00 0.00 38 1006.0
20260503191527 66 242 8.7 20.0 0.00 0.00 0.00 38 1006.1
20260503190523 66 250 6.1 13.0 0.00 0.00 0.00 40 1006.2
20260503185520 65 246 6.1 14.8 0.00 0.00 0.00 41 1006.3
20260503184517 65 243 6.1 15.6 0.00 0.00 0.00 41 1006.5
20260503183534 65 232 6.1 20.9 0.00 0.00 0.00 43 1006.6
20260503182531 64 239 6.1 14.8 0.00 0.00 0.00 43 1006.7
20260503181527 64 230 6.1 12.2 0.00 0.00 0.00 44 1007.1
20260503180524 63 243 4.3 8.7 0.00 0.00 0.00 46 1007.2
20260503175521 62 231 6.1 13.9 0.00 0.00 0.00 46 1007.5
20260503174537 61 237 7.0 12.2 0.00 0.00 0.00 47 1007.6
20260503173534 61 238 7.8 16.5 0.00 0.00 0.00 48 1007.9
20260503172531 60 246 7.0 16.5 0.00 0.00 0.00 48 1008.1
20260503171528 60 221 6.1 13.0 0.00 0.00 0.00 49 1008.3
20260503170524 58 243 7.0 13.9 0.00 0.00 0.00 51 1008.6
20260503150525 57 237 6.1 13.9 0.00 0.00 0.00 50 1009.6
20260503130526 52 256 4.3 11.3 0.00 0.00 0.00 53 1010.8
20260503110526 49 255 3.5 7.0 0.00 0.00 0.00 51 1010.7
20260503081531 48 232 2.6 5.2 0.00 0.00 0.00 53 1011.7
20260503080528 48 235 2.6 7.8 0.00 0.00 0.00 53 1012.0
20260503072535 48 242 1.7 5.2 0.00 0.00 0.00 53 1012.2
20260503071532 48 241 2.6 4.3 0.00 0.00 0.00 53 1012.3
20260503070528 47 237 2.6 7.0 0.00 0.00 0.00 52 1012.4
20260503054522 46 230 1.7 3.5 0.00 0.00 0.00 55 1013.0
20260503053519 46 234 1.7 5.2 0.00 0.00 0.00 56 1012.9
20260503052516 44 229 0.9 2.6 0.00 0.00 0.00 60 1013.1
20260503051533 42 205 0.9 2.6 0.00 0.00 0.00 66 1013.1
20260503050529 39 133 0.0 1.7 0.00 0.00 0.00 73 1013.2
20260503045606 38 144 0.9 1.7 0.00 0.00 0.00 80 1013.3
20260503044523 38 137 0.9 2.6 0.00 0.00 0.00 81 1013.3
20260503043540 39 145 1.7 1.7 0.00 0.00 0.00 79 1013.3
20260503042516 40 131 1.7 1.7 0.00 0.00 0.00 77 1013.4
20260503041533 38 140 0.9 1.7 0.00 0.00 0.00 81 1013.5
20260503040530 38 143 1.7 1.7 0.00 0.00 0.00 81 1013.5
20260503035547 38 147 1.7 1.7 0.00 0.00 0.00 80 1013.7
20260503034543 40 144 0.9 1.7 0.00 0.00 0.00 77 1013.7
20260503033520 40 141 1.7 1.7 0.00 0.00 0.00 75 1013.8
20260503032517 40 144 0.9 1.7 0.00 0.00 0.00 76 1013.8
20260503031534 38 115 0.9 1.7 0.00 0.00 0.00 79 1014.0
20260503030531 39 124 0.9 1.7 0.00 0.00 0.00 79 1014.0
20260503025527 40 149 0.9 1.7 0.00 0.00 0.00 76 1014.2
20260503024524 41 121 0.9 1.7 0.00 0.00 0.00 74 1014.1
20260503023521 41 135 0.9 1.7 0.00 0.00 0.00 72 1014.2
20260503022517 42 81 0.9 1.7 0.00 0.00 0.00 69 1014.2
20260503021534 43 100 0.9 1.7 0.00 0.00 0.00 67 1014.2
20260503020531 44 106 0.9 1.7 0.00 0.00 0.00 65 1014.2
20260503015527 45 67 0.9 1.7 0.00 0.00 0.00 62 1014.1
20260503014524 46 61 0.9 1.7 0.00 0.00 0.00 60 1014.1
20260503013521 47 124 0.9 3.5 0.00 0.00 0.00 58 1014.0
20260503012517 48 85 0.9 1.7 0.00 0.00 0.00 56 1013.9
20260503011554 49 126 1.7 3.5 0.00 0.00 0.00 53 1013.8
20260503010531 50 128 2.6 5.2 0.00 0.00 0.00 51 1013.9
20260503005528 51 128 3.5 6.1 0.00 0.00 0.00 48 1013.9
20260503004525 53 122 1.7 2.6 0.00 0.00 0.00 39 1013.8
20260503003521 54 156 0.9 2.6 0.00 0.00 0.00 38 1013.8
20260503002518 55 217 1.7 5.2 0.00 0.00 0.00 36 1013.9
20260503001535 55 232 1.7 5.2 0.00 0.00 0.00 36 1013.8
20260503000531 56 214 1.7 5.2 0.00 0.00 0.00 35 1014.1
20260502235528 56 204 0.9 2.6 0.00 0.00 0.00 36 1014.1
20260502234525 56 269 2.6 4.3 0.00 0.00 0.00 35 1014.2
20260502233521 56 253 1.7 5.2 0.00 0.00 0.00 35 1014.2
20260502232518 57 227 2.6 5.2 0.00 0.00 0.00 34 1014.4
20260502231535 58 275 2.6 6.1 0.00 0.00 0.00 33 1014.4
20260502230532 58 222 2.6 5.2 0.00 0.00 0.00 33 1014.5
20260502225548 57 232 2.6 7.8 0.00 0.00 0.00 34 1014.5
20260502224525 59 279 2.6 7.0 0.00 0.00 0.00 31 1014.5
20260502223521 58 306 2.6 7.0 0.00 0.00 0.00 32 1014.9
20260502222538 58 258 3.5 7.8 0.00 0.00 0.00 32 1014.8
20260502221535 58 248 1.7 3.5 0.00 0.00 0.00 33 1014.9
20260502220532 58 241 2.6 8.7 0.00 0.00 0.00 33 1015.0
20260502215528 57 268 3.5 9.6 0.00 0.00 0.00 33 1015.1
20260502214525 56 254 2.6 7.8 0.00 0.00 0.00 33 1015.2
20260502213542 59 248 4.3 7.8 0.00 0.00 0.00 32 1015.2
20260502212539 58 251 4.3 7.0 0.00 0.00 0.00 32 1015.2
20260502211516 58 239 2.6 6.1 0.00 0.00 0.00 32 1015.2
20260502210532 57 289 2.6 4.3 0.00 0.00 0.00 33 1015.4
20260502205549 57 262 3.5 7.8 0.00 0.00 0.00 34 1015.6